QPF
0.00 0.00 0.00 0.00 0.01 0.06 0.15 0.09 0.02 0.00 0.00 0.00 0.00 0.00 0.02 0.04 0.05 0.08 0.01 0.00 0.00 0.00 0.00 0.00 0.00 0.00 0.00 0.01 0.02 0.03 0.03 0.04 0.03 0.02 0.01 0.01 0.01 0.01 0.00 0.00 0.00 0.00 0.00 0.00 0.00 0.00 0.00 0.00 0.00
0.00 0.00 0.00 0.00 0.02 0.15 0.27 0.13 0.03 0.00 0.00 0.00 0.00 0.00 0.00 0.00 0.00 0.00 0.00 0.00 0.00 0.00 0.00 0.00 0.00 0.00 0.00 0.01 0.01 0.02 0.03 0.03 0.03 0.02 0.01 0.01 0.01 0.00 0.00 0.00 0.00 0.00 0.00 0.00 0.00 0.00 0.00 0.00 0.00
0.00 0.00 0.00 0.00 0.02 0.04 0.08 0.04 0.01 0.00 0.00 0.00 0.00 0.00 0.01 0.01 0.00 0.00 0.00 0.00 0.00 0.00 0.00 0.00 0.00 0.00 0.00 0.00 0.01 0.02 0.02 0.03 0.02 0.01 0.01 0.01 0.00 0.00 0.00 0.00 0.00 0.00 0.01 0.01 0.01 0.01 0.00 0.00 0.00
0.00 0.00 0.00 0.00 0.02 0.02 0.01 0.01 0.00 0.00 0.00 0.00 0.00 0.00 0.00 0.00 0.00 0.00 0.00 0.00 0.00 0.00 0.00 0.00 0.00 0.00 0.00 0.00 0.01 0.01 0.01 0.01 0.01 0.00 0.00 0.00 0.00 0.00 0.00 0.00 0.00 0.01 0.01 0.01 0.01 0.01 0.01 0.00 0.00
0.00 0.00 0.00 0.01 0.04 0.03 0.02 0.00 0.00 0.01 0.03 0.02 0.01 0.02 0.00 0.00 0.00 0.00 0.00 0.00 0.00 0.00 0.00 0.00 0.00 0.00 0.00 0.00 0.01 0.01 0.01 0.01 0.01 0.00 0.00 0.00 0.00 0.00 0.00 0.00 0.00 0.01 0.01 0.01 0.02 0.02 0.01 0.01 0.00
0.00 0.00 0.00 0.01 0.02 0.01 0.02 0.01 0.00 0.02 0.09 0.07 0.04 0.03 0.02 0.00 0.00 0.00 0.00 0.00 0.00 0.00 0.00 0.00 0.00 0.00 0.00 0.00 0.01 0.01 0.01 0.01 0.01 0.00 0.00 0.00 0.01 0.01 0.01 0.01 0.01 0.01 0.01 0.02 0.02 0.03 0.02 0.02 0.01
0.00 0.00 0.00 0.01 0.01 0.00 0.00 0.00 0.00 0.03 0.08 0.07 0.07 0.07 0.05 0.01 0.00 0.00 0.00 0.00 0.00 0.00 0.00 0.01 0.00 0.01 0.01 0.01 0.01 0.01 0.01 0.01 0.01 0.01 0.01 0.01 0.01 0.01 0.01 0.01 0.01 0.01 0.02 0.02 0.02 0.03 0.03 0.02 0.02
0.00 0.00 0.00 0.00 0.00 0.00 0.00 0.00 0.02 0.05 0.06 0.02 0.02 0.03 0.04 0.00 0.00 0.00 0.00 0.00 0.00 0.00 0.00 0.00 0.01 0.02 0.02 0.02 0.02 0.02 0.02 0.02 0.01 0.01 0.01 0.02 0.01 0.02 0.02 0.02 0.02 0.02 0.02 0.02 0.03 0.03 0.03 0.04 0.03
0.00 0.00 0.00 0.00 0.00 0.00 0.00 0.01 0.02 0.07 0.05 0.01 0.01 0.03 0.06 0.02 0.00 0.00 0.00 0.00 0.00 0.00 0.00 0.01 0.01 0.02 0.03 0.04 0.04 0.03 0.03 0.03 0.02 0.03 0.03 0.03 0.06 0.09 0.11 0.07 0.05 0.04 0.03 0.03 0.04 0.04 0.03 0.03 0.03
0.00 0.00 0.00 0.00 0.00 0.00 0.02 0.04 0.03 0.04 0.06 0.05 0.04 0.03 0.05 0.03 0.00 0.00 0.00 0.00 0.00 0.00 0.00 0.01 0.02 0.01 0.02 0.04 0.08 0.09 0.09 0.11 0.08 0.13 0.12 0.12 0.13 0.11 0.10 0.12 0.09 0.07 0.04 0.05 0.07 0.05 0.04 0.03 0.04
0.00 0.00 0.00 0.00 0.00 0.00 0.02 0.06 0.04 0.02 0.15 0.34 0.21 0.07 0.02 0.02 0.01 0.00 0.00 0.00 0.00 0.00 0.00 0.00 0.01 0.01 0.02 0.04 0.06 0.10 0.12 0.16 0.12 0.11 0.12 0.14 0.12 0.10 0.10 0.14 0.14 0.12 0.09 0.10 0.12 0.12 0.10 0.12 0.11
0.00 0.00 0.00 0.00 0.00 0.00 0.01 0.04 0.04 0.04 0.29 0.55 0.32 0.10 0.01 0.01 0.01 0.01 0.01 0.00 0.00 0.00 0.01 0.01 0.01 0.02 0.03 0.03 0.05 0.08 0.09 0.12 0.12 0.11 0.08 0.11 0.12 0.12 0.12 0.14 0.15 0.15 0.14 0.14 0.15 0.18 0.21 0.18 0.16
0.00 0.00 0.00 0.00 0.00 0.00 0.00 0.01 0.06 0.09 0.21 0.26 0.18 0.07 0.02 0.01 0.01 0.00 0.01 0.02 0.01 0.01 0.01 0.02 0.01 0.01 0.02 0.04 0.06 0.06 0.07 0.09 0.09 0.09 0.07 0.08 0.09 0.10 0.11 0.16 0.16 0.16 0.16 0.16 0.17 0.17 0.17 0.17 0.17
0.00 0.00 0.00 0.00 0.00 0.00 0.00 0.01 0.07 0.12 0.15 0.12 0.08 0.05 0.02 0.03 0.03 0.04 0.04 0.04 0.03 0.02 0.03 0.03 0.02 0.02 0.04 0.04 0.05 0.06 0.06 0.07 0.06 0.05 0.04 0.04 0.05 0.06 0.07 0.08 0.10 0.11 0.13 0.15 0.15 0.14 0.13 0.11 0.11
0.00 0.00 0.01 0.01 0.01 0.02 0.01 0.02 0.08 0.09 0.09 0.05 0.03 0.03 0.03 0.04 0.05 0.08 0.14 0.08 0.06 0.04 0.03 0.02 0.03 0.04 0.04 0.04 0.05 0.05 0.04 0.04 0.03 0.03 0.03 0.03 0.04 0.03 0.03 0.04 0.05 0.06 0.08 0.09 0.09 0.09 0.10 0.09 0.09
0.00 0.00 0.04 0.04 0.01 0.02 0.02 0.18 0.26 0.12 0.07 0.06 0.03 0.03 0.03 0.04 0.05 0.05 0.06 0.05 0.05 0.03 0.02 0.01 0.02 0.04 0.04 0.05 0.05 0.04 0.03 0.03 0.02 0.02 0.02 0.02 0.01 0.02 0.01 0.02 0.02 0.02 0.03 0.04 0.05 0.04 0.04 0.05 0.05
0.01 0.02 0.02 0.02 0.01 0.01 0.04 0.32 0.42 0.16 0.10 0.07 0.05 0.04 0.04 0.05 0.05 0.04 0.03 0.03 0.03 0.03 0.03 0.02 0.03 0.04 0.04 0.03 0.02 0.02 0.02 0.02 0.02 0.01 0.01 0.00 0.00 0.00 0.00 0.01 0.01 0.01 0.01 0.01 0.01 0.02 0.02 0.02 0.02
0.00 0.01 0.02 0.02 0.02 0.00 0.02 0.22 0.28 0.16 0.11 0.08 0.06 0.05 0.05 0.04 0.04 0.04 0.04 0.03 0.04 0.04 0.04 0.03 0.02 0.02 0.01 0.01 0.01 0.01 0.01 0.01 0.00 0.00 0.00 0.00 0.00 0.00 0.00 0.00 0.01 0.01 0.01 0.01 0.01 0.01 0.01 0.01 0.01
0.00 0.00 0.01 0.01 0.00 0.00 0.02 0.09 0.10 0.08 0.09 0.10 0.11 0.09 0.06 0.04 0.04 0.04 0.04 0.04 0.04 0.03 0.03 0.02 0.01 0.01 0.01 0.01 0.01 0.01 0.00 0.00 0.00 0.00 0.00 0.00 0.00 0.00 0.00 0.00 0.00 0.00 0.01 0.01 0.01 0.01 0.01 0.01 0.00
0.00 0.01 0.01 0.01 0.00 0.00 0.01 0.06 0.08 0.09 0.07 0.08 0.07 0.07 0.04 0.04 0.04 0.04 0.04 0.03 0.02 0.02 0.01 0.01 0.01 0.01 0.01 0.01 0.00 0.00 0.00 0.00 0.00 0.00 0.00 0.00 0.00 0.00 0.00 0.00 0.00 0.00 0.00 0.00 0.01 0.01 0.01 0.01 0.00
0.01 0.01 0.01 0.00 0.00 0.01 0.02 0.08 0.10 0.11 0.06 0.04 0.03 0.03 0.03 0.03 0.03 0.04 0.04 0.02 0.02 0.02 0.01 0.01 0.01 0.01 0.01 0.01 0.01 0.01 0.00 0.00 0.01 0.01 0.01 0.00 0.00 0.00 0.00 0.00 0.00 0.00 0.00 0.00 0.01 0.01 0.01 0.01 0.00
0.01 0.00 0.00 0.00 0.01 0.05 0.04 0.16 0.18 0.10 0.07 0.04 0.03 0.03 0.02 0.02 0.03 0.03 0.02 0.01 0.00 0.00 0.00 0.00 0.00 0.01 0.01 0.01 0.01 0.01 0.01 0.01 0.01 0.01 0.00 0.00 0.00 0.00 0.00 0.00 0.00 0.00 0.00 0.00 0.00 0.00 0.01 0.01 0.01
0.00 0.00 0.00 0.01 0.01 0.06 0.05 0.08 0.09 0.06 0.07 0.04 0.03 0.03 0.02 0.01 0.01 0.01 0.00 0.00 0.00 0.00 0.00 0.00 0.02 0.02 0.02 0.01 0.01 0.01 0.01 0.01 0.01 0.00 0.00 0.00 0.00 0.00 0.00 0.00 0.00 0.00 0.00 0.00 0.00 0.00 0.00 0.00 0.01
0.00 0.00 0.02 0.04 0.09 0.15 0.06 0.05 0.05 0.04 0.04 0.02 0.02 0.03 0.01 0.01 0.00 0.00 0.00 0.00 0.00 0.00 0.00 0.01 0.04 0.04 0.02 0.01 0.01 0.01 0.01 0.00 0.00 0.00 0.00 0.00 0.00 0.00 0.00 0.00 0.00 0.00 0.00 0.00 0.00 0.01 0.01 0.01 0.01
0.00 0.02 0.08 0.12 0.20 0.16 0.03 0.01 0.01 0.00 0.00 0.00 0.01 0.01 0.01 0.00 0.00 0.00 0.00 0.00 0.00 0.00 0.01 0.02 0.03 0.03 0.01 0.01 0.01 0.00 0.00 0.00 0.00 0.00 0.00 0.00 0.00 0.00 0.00 0.00 0.00 0.00 0.00 0.00 0.00 0.01 0.01 0.01 0.01
0.00 0.02 0.05 0.06 0.05 0.03 0.02 0.01 0.00 0.00 0.00 0.00 0.00 0.00 0.00 0.00 0.00 0.00 0.00 0.00 0.00 0.01 0.00 0.00 0.01 0.01 0.01 0.00 0.00 0.00 0.00 0.00 0.00 0.00 0.00 0.00 0.00 0.00 0.00 0.00 0.00 0.00 0.00 0.00 0.01 0.01 0.01 0.01 0.01
0.00 0.01 0.01 0.00 0.01 0.02 0.03 0.01 0.00 0.00 0.00 0.00 0.00 0.00 0.00 0.00 0.00 0.00 0.00 0.00 0.01 0.00 0.00 0.00 0.00 0.00 0.00 0.00 0.00 0.00 0.00 0.00 0.00 0.00 0.00 0.00 0.00 0.00 0.00 0.00 0.00 0.00 0.01 0.01 0.01 0.01 0.01 0.01 0.01
0.00 0.00 0.00 0.00 0.01 0.02 0.04 0.03 0.01 0.00 0.00 0.00 0.00 0.00 0.00 0.00 0.00 0.00 0.00 0.00 0.00 0.00 0.00 0.00 0.00 0.00 0.00 0.00 0.00 0.00 0.00 0.00 0.00 0.00 0.00 0.00 0.00 0.00 0.00 0.00 0.00 0.00 0.01 0.01 0.01 0.01 0.01 0.02 0.01
0.00 0.00 0.00 0.00 0.00 0.01 0.05 0.07 0.03 0.00 0.00 0.00 0.00 0.00 0.00 0.00 0.00 0.00 0.00 0.00 0.00 0.00 0.00 0.00 0.00 0.00 0.00 0.00 0.00 0.00 0.00 0.00 0.00 0.00 0.00 0.00 0.00 0.00 0.00 0.01 0.01 0.01 0.01 0.01 0.02 0.01 0.01 0.01 0.01
0.00 0.00 0.00 0.00 0.00 0.00 0.02 0.02 0.01 0.00 0.00 0.00 0.00 0.00 0.00 0.00 0.00 0.00 0.00 0.00 0.00 0.00 0.00 0.00 0.00 0.00 0.00 0.00 0.00 0.00 0.00 0.00 0.00 0.00 0.00 0.00 0.00 0.00 0.00 0.01 0.01 0.01 0.01 0.01 0.02 0.02 0.02 0.02 0.02
MSLP
1010.15 1010.86 1011.55 1012.04 1012.17 1011.87 1011.14 1010.08 1008.87 1007.72 1006.81 1006.29 1006.21 1006.54 1007.16 1007.92 1008.67 1009.28 1009.71 1009.95 1010.10 1010.22 1010.43 1010.76 1011.24 1011.82 1012.43 1012.98 1013.43 1013.73 1013.91 1014.01 1014.11 1014.25 1014.48 1014.80 1015.17 1015.54 1015.86 1016.10 1016.24 1016.30 1016.31 1016.33 1016.38 1016.48 1016.63 1016.79 1016.93
1010.35 1011.10 1011.75 1012.13 1012.11 1011.64 1010.76 1009.61 1008.35 1007.21 1006.36 1005.91 1005.89 1006.25 1006.87 1007.61 1008.32 1008.91 1009.34 1009.63 1009.87 1010.13 1010.47 1010.95 1011.54 1012.18 1012.82 1013.36 1013.77 1014.03 1014.18 1014.26 1014.35 1014.50 1014.73 1015.03 1015.37 1015.68 1015.94 1016.10 1016.18 1016.20 1016.22 1016.26 1016.36 1016.52 1016.73 1016.93 1017.08
1010.59 1011.33 1011.88 1012.10 1011.90 1011.27 1010.27 1009.07 1007.83 1006.76 1006.01 1005.66 1005.70 1006.08 1006.67 1007.33 1007.96 1008.49 1008.90 1009.24 1009.57 1009.97 1010.47 1011.09 1011.80 1012.52 1013.18 1013.72 1014.09 1014.32 1014.44 1014.51 1014.61 1014.76 1014.99 1015.27 1015.55 1015.80 1015.97 1016.06 1016.08 1016.08 1016.09 1016.17 1016.33 1016.55 1016.81 1017.05 1017.22
1010.81 1011.46 1011.86 1011.89 1011.49 1010.70 1009.63 1008.41 1007.25 1006.31 1005.71 1005.48 1005.60 1005.98 1006.52 1007.09 1007.62 1008.07 1008.45 1008.82 1009.24 1009.77 1010.43 1011.21 1012.03 1012.82 1013.50 1014.02 1014.36 1014.55 1014.65 1014.72 1014.82 1014.99 1015.21 1015.47 1015.72 1015.90 1016.01 1016.03 1016.00 1015.97 1015.99 1016.11 1016.31 1016.59 1016.89 1017.15 1017.33
1010.95 1011.45 1011.64 1011.44 1010.84 1009.92 1008.79 1007.64 1006.60 1005.85 1005.43 1005.35 1005.56 1005.96 1006.44 1006.91 1007.32 1007.68 1008.02 1008.42 1008.92 1009.58 1010.39 1011.29 1012.20 1013.04 1013.73 1014.23 1014.53 1014.69 1014.77 1014.84 1014.96 1015.14 1015.38 1015.64 1015.86 1016.00 1016.05 1016.02 1015.96 1015.92 1015.95 1016.09 1016.33 1016.64 1016.97 1017.23 1017.39
1010.96 1011.26 1011.20 1010.76 1009.97 1008.94 1007.82 1006.77 1005.92 1005.39 1005.19 1005.29 1005.60 1006.02 1006.45 1006.82 1007.12 1007.39 1007.69 1008.10 1008.68 1009.44 1010.35 1011.35 1012.32 1013.19 1013.86 1014.32 1014.58 1014.71 1014.77 1014.85 1015.00 1015.21 1015.48 1015.75 1015.97 1016.10 1016.12 1016.06 1015.97 1015.92 1015.96 1016.11 1016.37 1016.70 1017.02 1017.27 1017.40
1010.80 1010.87 1010.56 1009.89 1008.96 1007.88 1006.82 1005.93 1005.31 1005.04 1005.08 1005.36 1005.78 1006.22 1006.60 1006.88 1007.08 1007.27 1007.52 1007.94 1008.55 1009.38 1010.36 1011.40 1012.40 1013.25 1013.88 1014.29 1014.51 1014.60 1014.66 1014.76 1014.94 1015.20 1015.52 1015.82 1016.06 1016.18 1016.20 1016.13 1016.03 1015.98 1016.01 1016.16 1016.42 1016.73 1017.02 1017.25 1017.34
1010.51 1010.34 1009.81 1008.97 1007.95 1006.90 1005.96 1005.27 1004.92 1004.91 1005.19 1005.64 1006.15 1006.60 1006.93 1007.13 1007.24 1007.35 1007.56 1007.95 1008.58 1009.43 1010.42 1011.47 1012.44 1013.24 1013.82 1014.16 1014.33 1014.40 1014.46 1014.59 1014.81 1015.13 1015.50 1015.85 1016.11 1016.26 1016.28 1016.21 1016.12 1016.05 1016.08 1016.21 1016.44 1016.71 1016.97 1017.15 1017.21
1010.13 1009.76 1009.07 1008.15 1007.14 1006.18 1005.43 1004.98 1004.89 1005.13 1005.61 1006.20 1006.76 1007.21 1007.48 1007.59 1007.61 1007.64 1007.80 1008.16 1008.77 1009.60 1010.57 1011.57 1012.47 1013.20 1013.70 1013.98 1014.11 1014.16 1014.23 1014.39 1014.67 1015.04 1015.46 1015.85 1016.15 1016.33 1016.36 1016.30 1016.20 1016.13 1016.14 1016.24 1016.43 1016.66 1016.87 1017.01 1017.04
1009.71 1009.22 1008.47 1007.57 1006.66 1005.88 1005.36 1005.18 1005.33 1005.78 1006.39 1007.05 1007.62 1008.01 1008.20 1008.21 1008.14 1008.10 1008.21 1008.53 1009.10 1009.88 1010.78 1011.70 1012.52 1013.15 1013.57 1013.79 1013.88 1013.94 1014.03 1014.23 1014.56 1014.98 1015.44 1015.87 1016.19 1016.39 1016.44 1016.38 1016.29 1016.20 1016.18 1016.25 1016.39 1016.57 1016.74 1016.84 1016.84
1009.34 1008.82 1008.12 1007.34 1006.62 1006.09 1005.83 1005.89 1006.24 1006.82 1007.49 1008.14 1008.63 1008.93 1009.01 1008.92 1008.77 1008.67 1008.73 1009.01 1009.53 1010.24 1011.05 1011.87 1012.58 1013.12 1013.46 1013.64 1013.72 1013.78 1013.91 1014.15 1014.51 1014.97 1015.46 1015.90 1016.24 1016.44 1016.51 1016.46 1016.36 1016.26 1016.22 1016.26 1016.35 1016.49 1016.61 1016.68 1016.66
1009.06 1008.61 1008.05 1007.49 1007.03 1006.77 1006.77 1007.04 1007.52 1008.15 1008.78 1009.32 1009.69 1009.83 1009.78 1009.60 1009.38 1009.24 1009.27 1009.52 1009.99 1010.64 1011.37 1012.08 1012.69 1013.14 1013.43 1013.57 1013.65 1013.74 1013.90 1014.17 1014.56 1015.03 1015.52 1015.96 1016.30 1016.50 1016.56 1016.52 1016.42 1016.32 1016.26 1016.27 1016.33 1016.41 1016.50 1016.54 1016.51
1008.92 1008.61 1008.27 1007.97 1007.81 1007.83 1008.06 1008.47 1009.00 1009.57 1010.07 1010.44 1010.61 1010.58 1010.39 1010.12 1009.86 1009.72 1009.75 1010.00 1010.45 1011.04 1011.69 1012.32 1012.84 1013.22 1013.47 1013.60 1013.69 1013.81 1014.00 1014.30 1014.70 1015.16 1015.63 1016.04 1016.36 1016.54 1016.61 1016.57 1016.48 1016.38 1016.31 1016.30 1016.32 1016.38 1016.43 1016.44 1016.41
1008.91 1008.79 1008.70 1008.69 1008.82 1009.08 1009.47 1009.95 1010.44 1010.87 1011.16 1011.29 1011.24 1011.03 1010.72 1010.40 1010.14 1010.04 1010.12 1010.41 1010.86 1011.42 1012.02 1012.57 1013.03 1013.36 1013.58 1013.72 1013.84 1013.99 1014.21 1014.52 1014.90 1015.33 1015.75 1016.12 1016.40 1016.56 1016.62 1016.59 1016.52 1016.43 1016.37 1016.34 1016.35 1016.38 1016.39 1016.39 1016.34
1009.03 1009.10 1009.25 1009.51 1009.88 1010.33 1010.81 1011.27 1011.64 1011.86 1011.91 1011.78 1011.51 1011.14 1010.75 1010.43 1010.23 1010.21 1010.39 1010.74 1011.22 1011.78 1012.33 1012.83 1013.24 1013.54 1013.76 1013.91 1014.06 1014.24 1014.48 1014.78 1015.13 1015.51 1015.87 1016.18 1016.40 1016.54 1016.60 1016.58 1016.54 1016.48 1016.43 1016.41 1016.40 1016.40 1016.39 1016.36 1016.29
1009.22 1009.46 1009.82 1010.30 1010.85 1011.41 1011.91 1012.29 1012.49 1012.48 1012.26 1011.89 1011.43 1010.95 1010.54 1010.26 1010.17 1010.29 1010.59 1011.03 1011.56 1012.11 1012.64 1013.10 1013.46 1013.74 1013.95 1014.13 1014.31 1014.52 1014.76 1015.05 1015.36 1015.67 1015.95 1016.19 1016.36 1016.48 1016.53 1016.54 1016.53 1016.51 1016.49 1016.48 1016.46 1016.44 1016.41 1016.34 1016.25
1009.44 1009.81 1010.33 1010.97 1011.63 1012.24 1012.71 1012.96 1012.97 1012.72 1012.26 1011.69 1011.09 1010.57 1010.19 1010.02 1010.08 1010.35 1010.78 1011.32 1011.89 1012.45 1012.94 1013.35 1013.68 1013.93 1014.15 1014.34 1014.55 1014.78 1015.02 1015.28 1015.54 1015.78 1015.98 1016.15 1016.28 1016.37 1016.43 1016.48 1016.51 1016.54 1016.55 1016.55 1016.53 1016.49 1016.43 1016.34 1016.22
1009.62 1010.10 1010.74 1011.48 1012.21 1012.82 1013.21 1013.33 1013.14 1012.68 1012.04 1011.33 1010.66 1010.15 1009.86 1009.82 1010.05 1010.47 1011.03 1011.65 1012.25 1012.78 1013.23 1013.58 1013.85 1014.08 1014.30 1014.51 1014.74 1014.99 1015.24 1015.47 1015.67 1015.84 1015.98 1016.08 1016.17 1016.24 1016.32 1016.40 1016.48 1016.55 1016.60 1016.62 1016.60 1016.55 1016.47 1016.35 1016.22
1009.73 1010.29 1011.03 1011.84 1012.60 1013.19 1013.50 1013.48 1013.14 1012.52 1011.74 1010.95 1010.28 1009.82 1009.65 1009.77 1010.15 1010.71 1011.36 1012.02 1012.61 1013.09 1013.47 1013.75 1013.97 1014.17 1014.38 1014.61 1014.87 1015.14 1015.39 1015.60 1015.77 1015.88 1015.95 1016.00 1016.05 1016.12 1016.22 1016.33 1016.46 1016.57 1016.66 1016.69 1016.68 1016.62 1016.52 1016.39 1016.24
1009.74 1010.39 1011.21 1012.09 1012.87 1013.43 1013.67 1013.55 1013.08 1012.35 1011.50 1010.69 1010.05 1009.68 1009.62 1009.88 1010.38 1011.04 1011.74 1012.39 1012.94 1013.35 1013.63 1013.83 1014.00 1014.17 1014.38 1014.64 1014.94 1015.23 1015.49 1015.70 1015.83 1015.90 1015.92 1015.93 1015.96 1016.03 1016.14 1016.29 1016.45 1016.60 1016.72 1016.77 1016.76 1016.69 1016.58 1016.44 1016.30
1009.64 1010.40 1011.32 1012.26 1013.07 1013.62 1013.81 1013.60 1013.05 1012.26 1011.38 1010.58 1009.99 1009.70 1009.75 1010.11 1010.69 1011.39 1012.09 1012.70 1013.16 1013.48 1013.67 1013.80 1013.92 1014.08 1014.30 1014.60 1014.93 1015.27 1015.56 1015.77 1015.89 1015.93 1015.92 1015.90 1015.91 1015.97 1016.09 1016.27 1016.46 1016.64 1016.77 1016.84 1016.83 1016.76 1016.64 1016.51 1016.37
1009.47 1010.36 1011.38 1012.40 1013.25 1013.79 1013.94 1013.69 1013.09 1012.26 1011.37 1010.58 1010.04 1009.82 1009.93 1010.34 1010.95 1011.64 1012.29 1012.83 1013.21 1013.43 1013.55 1013.62 1013.72 1013.89 1014.15 1014.50 1014.89 1015.27 1015.60 1015.82 1015.94 1015.97 1015.94 1015.90 1015.89 1015.95 1016.07 1016.26 1016.47 1016.66 1016.80 1016.87 1016.86 1016.78 1016.67 1016.54 1016.43
1009.28 1010.30 1011.43 1012.52 1013.40 1013.94 1014.06 1013.76 1013.12 1012.27 1011.37 1010.60 1010.08 1009.88 1010.02 1010.43 1011.02 1011.67 1012.26 1012.72 1013.02 1013.18 1013.26 1013.32 1013.43 1013.64 1013.96 1014.37 1014.83 1015.26 1015.62 1015.87 1015.99 1016.00 1015.96 1015.90 1015.88 1015.93 1016.05 1016.23 1016.44 1016.63 1016.77 1016.83 1016.82 1016.74 1016.62 1016.50 1016.41
1009.13 1010.26 1011.48 1012.61 1013.50 1014.02 1014.10 1013.76 1013.08 1012.20 1011.29 1010.51 1009.99 1009.79 1009.91 1010.29 1010.83 1011.42 1011.94 1012.35 1012.60 1012.74 1012.82 1012.91 1013.07 1013.35 1013.75 1014.24 1014.75 1015.24 1015.63 1015.89 1016.01 1016.02 1015.96 1015.88 1015.84 1015.87 1015.98 1016.14 1016.34 1016.52 1016.65 1016.70 1016.67 1016.59 1016.47 1016.36 1016.28
1009.06 1010.27 1011.52 1012.66 1013.51 1013.98 1014.01 1013.61 1012.89 1011.97 1011.03 1010.24 1009.70 1009.47 1009.55 1009.88 1010.36 1010.89 1011.37 1011.75 1012.00 1012.17 1012.30 1012.46 1012.71 1013.08 1013.56 1014.12 1014.69 1015.20 1015.61 1015.87 1015.98 1015.98 1015.90 1015.80 1015.74 1015.75 1015.83 1015.97 1016.15 1016.30 1016.41 1016.44 1016.41 1016.31 1016.19 1016.08 1016.01
1009.12 1010.33 1011.55 1012.62 1013.39 1013.77 1013.72 1013.25 1012.47 1011.52 1010.57 1009.75 1009.19 1008.93 1008.96 1009.24 1009.68 1010.17 1010.63 1011.02 1011.32 1011.56 1011.78 1012.05 1012.40 1012.86 1013.42 1014.02 1014.62 1015.15 1015.55 1015.79 1015.88 1015.85 1015.75 1015.64 1015.55 1015.54 1015.59 1015.71 1015.85 1015.98 1016.06 1016.08 1016.03 1015.93 1015.80 1015.69 1015.62
1009.30 1010.42 1011.53 1012.47 1013.11 1013.36 1013.20 1012.67 1011.85 1010.88 1009.92 1009.10 1008.53 1008.25 1008.26 1008.51 1008.91 1009.39 1009.87 1010.30 1010.67 1011.00 1011.34 1011.72 1012.18 1012.72 1013.32 1013.95 1014.55 1015.05 1015.42 1015.63 1015.68 1015.63 1015.51 1015.37 1015.27 1015.24 1015.27 1015.37 1015.48 1015.58 1015.64 1015.64 1015.58 1015.46 1015.33 1015.21 1015.13
1009.55 1010.51 1011.43 1012.18 1012.64 1012.75 1012.48 1011.89 1011.05 1010.09 1009.16 1008.38 1007.84 1007.57 1007.58 1007.82 1008.22 1008.71 1009.22 1009.70 1010.16 1010.60 1011.04 1011.52 1012.06 1012.65 1013.28 1013.89 1014.45 1014.90 1015.21 1015.37 1015.39 1015.31 1015.17 1015.03 1014.92 1014.88 1014.90 1014.98 1015.07 1015.15 1015.19 1015.17 1015.10 1014.98 1014.84 1014.71 1014.62
1009.79 1010.53 1011.21 1011.73 1011.99 1011.95 1011.60 1010.97 1010.15 1009.25 1008.40 1007.70 1007.23 1007.01 1007.05 1007.30 1007.72 1008.24 1008.79 1009.33 1009.87 1010.39 1010.92 1011.46 1012.04 1012.64 1013.25 1013.81 1014.30 1014.68 1014.92 1015.02 1015.01 1014.91 1014.77 1014.63 1014.54 1014.50 1014.52 1014.59 1014.67 1014.73 1014.76 1014.73 1014.65 1014.53 1014.38 1014.24 1014.12
1009.94 1010.43 1010.86 1011.14 1011.21 1011.04 1010.62 1009.99 1009.24 1008.45 1007.72 1007.14 1006.77 1006.64 1006.74 1007.03 1007.48 1008.02 1008.60 1009.19 1009.77 1010.35 1010.92 1011.49 1012.07 1012.65 1013.19 1013.68 1014.08 1014.38 1014.55 1014.61 1014.57 1014.46 1014.34 1014.23 1014.16 1014.14 1014.17 1014.24 1014.31 1014.37 1014.38 1014.35 1014.26 1014.13 1013.98 1013.82 1013.69
Thickness
5835 5837 5837 5830 5815 5806 5797 5818 5847 5851 5855 5865 5868 5858 5837 5826 5817 5802 5834 5843 5834 5823 5814 5808 5804 5801 5798 5796 5793 5790 5787 5784 5781 5779 5777 5774 5772 5770 5769 5767 5766 5764 5763 5762 5760 5759 5758 5756 5755
5839 5841 5835 5825 5811 5788 5781 5813 5835 5852 5863 5871 5867 5858 5840 5828 5835 5832 5837 5838 5832 5822 5814 5807 5801 5798 5795 5792 5790 5788 5785 5782 5779 5777 5775 5773 5770 5769 5767 5765 5764 5763 5761 5760 5758 5757 5756 5755 5754
5839 5842 5828 5826 5819 5806 5802 5825 5845 5860 5871 5868 5857 5852 5838 5826 5833 5834 5837 5838 5830 5820 5811 5803 5799 5795 5792 5789 5787 5785 5782 5780 5777 5775 5773 5771 5769 5767 5765 5764 5762 5761 5759 5758 5756 5755 5754 5753 5752
5835 5833 5828 5823 5820 5831 5838 5847 5856 5856 5858 5864 5855 5835 5831 5838 5839 5838 5840 5836 5825 5816 5808 5800 5796 5792 5789 5786 5784 5781 5779 5777 5775 5772 5770 5768 5767 5765 5763 5762 5761 5759 5757 5756 5754 5753 5751 5751 5750
5833 5824 5816 5814 5819 5831 5843 5856 5862 5850 5842 5849 5846 5822 5817 5835 5843 5841 5838 5832 5823 5816 5806 5798 5793 5789 5786 5783 5781 5778 5776 5774 5772 5770 5768 5766 5764 5763 5761 5760 5758 5757 5755 5753 5752 5750 5749 5748 5747
5821 5823 5807 5807 5821 5835 5844 5851 5854 5843 5830 5833 5830 5817 5809 5830 5834 5835 5835 5830 5825 5815 5805 5795 5790 5787 5783 5781 5778 5775 5773 5771 5769 5767 5765 5763 5762 5760 5759 5757 5755 5754 5752 5751 5749 5748 5747 5746 5745
5811 5809 5805 5815 5825 5831 5842 5855 5850 5834 5826 5832 5832 5816 5808 5822 5830 5834 5832 5829 5823 5814 5803 5794 5789 5784 5780 5778 5775 5772 5770 5768 5766 5764 5762 5760 5759 5757 5756 5755 5753 5751 5750 5748 5747 5746 5745 5744 5743
5822 5807 5804 5817 5824 5830 5846 5849 5850 5842 5830 5847 5843 5817 5804 5816 5828 5830 5827 5824 5818 5811 5804 5796 5790 5784 5779 5776 5772 5770 5767 5765 5763 5761 5759 5757 5756 5754 5753 5752 5750 5749 5747 5746 5745 5744 5743 5742 5742
5823 5796 5795 5815 5825 5831 5839 5831 5839 5847 5836 5835 5836 5829 5819 5820 5823 5819 5816 5813 5808 5805 5801 5796 5790 5784 5780 5776 5771 5768 5765 5762 5760 5758 5756 5755 5753 5753 5751 5749 5747 5745 5744 5743 5742 5741 5741 5740 5739
5812 5791 5803 5825 5830 5828 5828 5824 5829 5828 5817 5808 5809 5812 5814 5812 5811 5808 5805 5800 5796 5794 5794 5793 5789 5783 5779 5776 5770 5767 5764 5760 5757 5755 5753 5751 5750 5750 5748 5746 5743 5742 5741 5740 5740 5739 5738 5737 5737
5811 5800 5812 5822 5829 5827 5822 5823 5830 5815 5789 5781 5779 5789 5802 5803 5802 5801 5799 5796 5792 5791 5790 5788 5784 5779 5776 5772 5767 5764 5760 5756 5754 5752 5750 5748 5747 5745 5744 5741 5739 5737 5737 5737 5737 5735 5734 5734 5735
5806 5808 5812 5815 5823 5820 5817 5817 5809 5797 5779 5777 5780 5787 5797 5800 5798 5796 5793 5790 5788 5786 5783 5782 5779 5774 5770 5767 5764 5760 5757 5753 5751 5748 5746 5744 5742 5740 5738 5736 5735 5734 5733 5733 5733 5732 5731 5731 5732
5803 5806 5813 5816 5816 5816 5817 5809 5798 5779 5784 5786 5785 5789 5796 5797 5795 5796 5792 5788 5784 5780 5778 5776 5773 5768 5764 5760 5757 5755 5753 5750 5747 5744 5741 5738 5737 5735 5734 5731 5730 5730 5729 5729 5728 5727 5727 5727 5728
5807 5807 5808 5810 5809 5812 5806 5802 5791 5773 5784 5777 5780 5786 5793 5791 5790 5787 5784 5780 5777 5774 5771 5769 5766 5762 5758 5755 5752 5750 5748 5745 5743 5739 5736 5733 5732 5730 5728 5727 5726 5725 5725 5723 5722 5723 5723 5723 5724
5809 5797 5794 5799 5800 5798 5799 5782 5773 5778 5782 5778 5782 5784 5785 5784 5783 5779 5777 5774 5773 5770 5767 5764 5761 5758 5754 5751 5749 5747 5744 5742 5738 5735 5732 5729 5727 5724 5723 5723 5722 5721 5720 5719 5719 5719 5719 5719 5721
5800 5784 5769 5783 5793 5795 5785 5749 5754 5769 5775 5773 5778 5778 5777 5777 5778 5778 5776 5772 5770 5767 5763 5761 5760 5753 5749 5746 5745 5743 5740 5737 5734 5731 5728 5724 5722 5719 5717 5717 5717 5715 5715 5715 5715 5714 5714 5714 5715
5782 5766 5762 5772 5791 5793 5777 5742 5751 5766 5765 5767 5770 5772 5771 5769 5771 5772 5772 5769 5766 5763 5760 5756 5754 5749 5746 5743 5741 5739 5736 5733 5730 5728 5724 5720 5717 5715 5712 5711 5711 5710 5709 5710 5710 5709 5708 5706 5707
5778 5778 5774 5774 5789 5791 5773 5751 5753 5761 5762 5764 5768 5769 5766 5764 5766 5769 5768 5766 5763 5759 5756 5752 5749 5746 5743 5741 5738 5736 5733 5730 5728 5724 5720 5716 5712 5710 5707 5706 5705 5704 5703 5703 5702 5701 5702 5701 5702
5797 5785 5775 5781 5796 5787 5772 5758 5753 5756 5757 5758 5764 5764 5761 5762 5765 5766 5764 5762 5759 5754 5751 5749 5745 5743 5740 5737 5734 5730 5727 5726 5724 5721 5717 5713 5708 5705 5703 5701 5699 5699 5698 5696 5696 5695 5694 5695 5698
5797 5784 5779 5784 5794 5786 5768 5754 5752 5753 5756 5759 5762 5760 5758 5757 5758 5759 5759 5758 5755 5752 5749 5746 5743 5741 5738 5736 5732 5729 5725 5723 5722 5719 5714 5710 5706 5702 5700 5697 5694 5693 5692 5691 5691 5690 5687 5688 5691
5792 5784 5784 5783 5791 5785 5765 5748 5749 5753 5758 5762 5766 5765 5762 5758 5755 5755 5755 5755 5753 5750 5748 5748 5743 5740 5737 5734 5731 5728 5723 5719 5717 5714 5711 5708 5704 5700 5697 5693 5691 5689 5687 5686 5686 5685 5683 5680 5683
5786 5800 5796 5788 5776 5757 5757 5725 5739 5749 5752 5755 5761 5764 5764 5763 5759 5757 5756 5755 5754 5752 5751 5748 5744 5740 5736 5732 5727 5722 5717 5713 5712 5711 5709 5706 5702 5699 5696 5692 5689 5686 5684 5682 5682 5682 5678 5676 5675
5800 5808 5795 5778 5761 5748 5747 5731 5735 5751 5745 5754 5763 5767 5769 5767 5764 5761 5760 5758 5757 5756 5753 5749 5743 5738 5734 5730 5725 5719 5715 5713 5711 5708 5705 5702 5701 5698 5695 5691 5687 5684 5680 5679 5677 5675 5673 5671 5669
5814 5799 5778 5760 5738 5718 5746 5740 5737 5753 5757 5762 5769 5771 5772 5772 5769 5766 5765 5762 5759 5758 5754 5749 5742 5735 5732 5727 5723 5718 5713 5709 5705 5702 5699 5698 5698 5697 5695 5690 5686 5681 5678 5675 5672 5670 5668 5666 5665
5804 5777 5741 5718 5708 5718 5763 5760 5757 5778 5786 5783 5778 5776 5777 5776 5772 5767 5764 5761 5758 5756 5753 5748 5741 5734 5730 5726 5721 5717 5712 5707 5703 5700 5698 5696 5693 5692 5690 5686 5681 5677 5674 5671 5668 5666 5663 5661 5659
5795 5785 5752 5734 5735 5748 5764 5761 5773 5795 5798 5796 5791 5786 5782 5778 5775 5770 5767 5764 5760 5756 5752 5747 5740 5733 5729 5725 5720 5716 5711 5706 5704 5700 5696 5693 5689 5687 5685 5681 5677 5673 5670 5667 5664 5661 5658 5657 5655
5793 5788 5795 5777 5770 5751 5750 5765 5777 5794 5792 5792 5790 5786 5782 5780 5777 5773 5771 5767 5761 5757 5753 5747 5739 5733 5728 5724 5719 5713 5709 5704 5700 5697 5693 5690 5687 5684 5681 5677 5674 5670 5666 5663 5659 5655 5653 5651 5649
5806 5800 5791 5775 5749 5741 5738 5742 5755 5772 5781 5786 5786 5784 5783 5782 5780 5777 5773 5768 5764 5759 5753 5746 5739 5732 5727 5722 5717 5714 5709 5705 5700 5695 5691 5687 5683 5680 5676 5673 5669 5665 5662 5658 5654 5651 5648 5645 5642
5789 5791 5787 5783 5776 5751 5727 5728 5771 5781 5788 5789 5789 5789 5786 5784 5781 5777 5773 5770 5764 5757 5750 5742 5736 5730 5724 5720 5716 5711 5706 5703 5698 5694 5690 5686 5682 5677 5672 5668 5664 5660 5657 5653 5649 5645 5642 5639 5636
5792 5792 5787 5766 5764 5769 5754 5752 5797 5799 5801 5799 5796 5794 5792 5788 5784 5779 5773 5767 5760 5753 5748 5741 5735 5729 5724 5720 5715 5710 5705 5700 5695 5691 5688 5684 5679 5674 5670 5665 5661 5656 5652 5648 5644 5639 5636 5632 5629